This is the latest recevied weather packets stored in our database for station/object HP1MRA-15. If no packets are shown the sender has not sent any weather packets the latest 10 day(s).
| Time | Temp. | Humidity | Pressure | Rain* | Wind** | Luminosity | Snow |
|---|---|---|---|---|---|---|---|
| 1787942098 | 35° C | 64% | 1001.4 hPa | 0 mm | - | - | - |
| 1787941798 | 35.56° C | 65% | 1001.4 hPa | 0 mm | - | - | - |
| 1787941499 | 35.56° C | 64% | 1001.4 hPa | 0 mm | - | - | - |
| 1787941496 | 35.56° C | 64% | 1001.4 hPa | 0 mm | - | - | - |
| 1787941198 | 35.56° C | 64% | 1001.3 hPa | 0 mm | - | - | - |
| 1787940899 | 35.56° C | 63% | 1001.5 hPa | 0 mm | - | - | - |
| 1787940598 | 36.11° C | 63% | 1001.5 hPa | 0 mm | - | - | - |
| 1787940597 | 36.11° C | 64% | 1001.6 hPa | 0 mm | - | - | - |
| 1787940298 | 36.11° C | 66% | 1001.5 hPa | 0 mm | - | - | - |
| 1787939998 | 35.56° C | 65% | 1001.5 hPa | 0 mm | - | - | - |
| 1787939695 | 35.56° C | 66% | 1001.5 hPa | 0 mm | - | - | - |
| 1787939399 | 35.56° C | 64% | 1001.5 hPa | 0 mm | - | - | - |
| 1787939098 | 35.56° C | 65% | 1001.5 hPa | 0 mm | - | - | - |
| 1787938798 | 35.56° C | 62% | 1001.5 hPa | 0 mm | - | - | - |
| 1787938796 | 35.56° C | 62% | 1001.5 hPa | 0 mm | - | - | - |
| 1787938498 | 36.67° C | 65% | 1001.4 hPa | 0 mm | - | - | - |
| 1787938198 | 37.22° C | 67% | 1001.2 hPa | 0 mm | - | - | - |
| 1787937897 | 37.78° C | 66% | 1001.1 hPa | 0 mm | - | - | - |
| 1787937896 | 37.78° C | 66% | 1001.1 hPa | 0 mm | - | - | - |
| 1787937598 | 37.78° C | 67% | 1001.1 hPa | 0 mm | - | - | - |
| 1787937298 | 37.78° C | 69% | 1001 hPa | 0 mm | - | - | - |
| 1787936998 | 37.22° C | 66% | 1001.2 hPa | 0 mm | - | - | - |
| 1787936995 | 37.22° C | 67% | 1001.2 hPa | 0 mm | - | - | - |
| 1787936698 | 36.67° C | 71% | 1001.2 hPa | 0 mm | - | - | - |
| 1787936397 | 36.67° C | 65% | 1001.2 hPa | 0 mm | - | - | - |
* Rain latest hour (hover to see other rain measurements)
** Current wind speed in m/s (hover to see current wind gust speed)